TimeCDT,TemperatureF,Dew PointF,Humidity,Sea Level PressureIn,VisibilityMPH,Wind Direction,Wind SpeedMPH,Gust SpeedMPH,PrecipitationIn,Events,Conditions,WindDirDegrees,DateUTC
12:53 AM,64.0,53.1,67,29.94,10.0,SSE,11.5,-,N/A,,Clear,150,2013-10-10 05:53:00
1:53 AM,63.0,53.1,70,29.93,10.0,SSE,10.4,-,N/A,,Clear,150,2013-10-10 06:53:00
2:53 AM,61.0,53.1,75,29.94,10.0,SSE,11.5,-,N/A,,Clear,160,2013-10-10 07:53:00
3:53 AM,63.0,52.0,67,29.93,10.0,SSE,13.8,-,N/A,,Clear,160,2013-10-10 08:53:00
4:53 AM,63.0,52.0,67,29.92,10.0,South,16.1,-,N/A,,Clear,170,2013-10-10 09:53:00
5:53 AM,62.1,52.0,70,29.92,10.0,SSE,13.8,-,N/A,,Clear,160,2013-10-10 10:53:00
6:53 AM,62.1,52.0,70,29.91,10.0,South,13.8,-,N/A,,Clear,170,2013-10-10 11:53:00
7:53 AM,61.0,52.0,72,29.92,10.0,SSE,15.0,-,N/A,,Clear,160,2013-10-10 12:53:00
8:53 AM,64.0,53.1,67,29.93,10.0,South,15.0,24.2,N/A,,Clear,170,2013-10-10 13:53:00
9:53 AM,69.1,53.1,57,29.93,10.0,South,16.1,23.0,N/A,,Clear,170,2013-10-10 14:53:00
10:53 AM,73.0,54.0,51,29.92,10.0,South,19.6,26.5,N/A,,Clear,170,2013-10-10 15:53:00
11:53 AM,77.0,55.0,47,29.89,10.0,SSE,19.6,24.2,N/A,,Clear,160,2013-10-10 16:53:00
12:53 PM,80.1,55.9,43,29.87,10.0,SSE,21.9,29.9,N/A,,Clear,160,2013-10-10 17:53:00
1:53 PM,82.0,55.9,41,29.84,10.0,SSE,19.6,27.6,N/A,,Clear,160,2013-10-10 18:53:00
2:53 PM,84.0,55.9,38,29.81,10.0,South,21.9,28.8,N/A,,Clear,170,2013-10-10 19:53:00
3:53 PM,84.0,55.9,38,29.79,10.0,SSE,23.0,35.7,N/A,,Clear,160,2013-10-10 20:53:00
4:53 PM,82.9,55.9,39,29.77,10.0,SSE,26.5,34.5,N/A,,Clear,160,2013-10-10 21:53:00
5:53 PM,81.0,55.9,42,29.76,10.0,SSE,19.6,31.1,N/A,,Clear,160,2013-10-10 22:53:00
6:53 PM,78.1,57.0,48,29.76,10.0,SSE,19.6,25.3,N/A,,Clear,150,2013-10-10 23:53:00
7:53 PM,75.0,57.0,53,29.77,10.0,SSE,20.7,26.5,N/A,,Clear,150,2013-10-11 00:53:00
8:53 PM,72.0,57.0,59,29.76,10.0,SE,19.6,26.5,N/A,,Clear,140,2013-10-11 01:53:00
9:53 PM,70.0,55.9,61,29.73,10.0,SE,21.9,28.8,N/A,,Clear,140,2013-10-11 02:53:00
10:53 PM,69.1,55.9,63,29.74,10.0,SSE,21.9,27.6,N/A,,Clear,160,2013-10-11 03:53:00
11:53 PM,69.1,55.0,61,29.72,10.0,SSE,25.3,33.4,N/A,,Clear,160,2013-10-11 04:53:00